Location: Martz Observatory
(42.0083°N, 79.0667°W)
Time: 00:30:22
(UTC-04:00)

NOSS 3-1 (A) - Pass Details

Date: 26 May 2018
Orbit: 803 x 1409 km, 63.4° (Epoch: 13 June)

Event Time Altitude Azimuth Distance (km) Brightness Sun altitude
Exits shadow 02:16:39 60° 161° (SSE) 1,005 3.3 -25.2°
Maximum altitude 02:17:23 67° 120° (ESE) 969 3.3 -25.1°
Drops below altitude 10° 02:23:40 10° 40° (NE) 2,755 6.8 -24.8°
Sets 02:26:27 0° 38° (NE) 3,801 7.8 -24.6°
